Flag for Guatemala Weather past 2 weeks in Escuintla, Guatemala

Now
63 °F

Partly sunny.


Feels Like: 63 °F
Forecast: 66 / 94 °F
Wind: 12 mph from North

Location: Guatemala Aeropuertola Aurora

Current Time: Aug 1, 2014 at 6:30:36 AM

Latest Report: Aug 1, 2014 at 6:00 AM


Visibility: N/A

Pressure: 30.27 "Hg

Humidity: 94%

Dew point: 61 °F

Location of EscuintlaLocation

Historic Weather in Escuintla — Graph

°F

Escuintla temperature yesterday

Maximum temperature yesterday: 79 °F (at 2:00 PM)
Minimum temperature yesterday: 61 °F (at 4:00 AM)
Average temperature yesterday: 69 °F

Past Weeks' High & Low Weather Summary

 TemperatureHumidityPressure
High82 °F (Jul 17, 2:00 PM)100% (Jul 25, 5:00 AM)30.39 "Hg (Jul 25, 5:00 AM)
Low59 °F (Jul 25, 5:00 AM)45% (Jul 24, 3:00 PM)30.21 "Hg (Jul 18, 4:00 PM)
Average69 °F76%30.30 "Hg
* Reported Jul 17 5:00 AM — Aug 1 5:00 AM, Escuintla, Weather by CustomWeather, © 2014

Note: Actual official high and low records may vary slightly from our data, if they occured in-between our weather recording intervals... More about our weather records

Advertising

Escuintla weather history for previous 24 hours

 ConditionsComfort  
Time TempWeatherWind HumidityBarometerVisibility
5:00 AM
Aug 1
63 °FPassing clouds.9 mph88%30.27 "HgN/A
4:00 AM63 °FPassing clouds.7 mph88%30.27 "HgN/A
3:00 AM63 °FPassing clouds.9 mph94%30.27 "HgN/A
2:00 AM63 °FPassing clouds.9 mph94%30.30 "HgN/A
1:00 AM64 °FPassing clouds.7 mph94%30.30 "HgN/A
12:00 AM64 °FPassing clouds.9 mph94%30.30 "HgN/A
11:00 PM
Jul 31
66 °FPassing clouds.12 mph88%30.33 "HgN/A
10:00 PM66 °FClear.12 mph88%30.33 "Hg10 mi
9:00 PM68 °FClear.12 mph78%30.30 "Hg10 mi
8:00 PM70 °FClear.9 mph73%30.30 "Hg10 mi
7:00 PM72 °FPassing clouds.12 mph69%30.27 "HgN/A
5:00 PM75 °FPassing clouds.18 mph54%30.24 "HgN/A
4:00 PM79 °FScattered clouds.18 mph48%30.24 "HgN/A
3:00 PM79 °FScattered clouds.18 mph48%30.27 "HgN/A
2:00 PM79 °FPassing clouds.14 mph48%30.27 "HgN/A
1:00 PM77 °FPassing clouds.16 mph54%30.30 "HgN/A
12:00 PM75 °FPassing clouds.16 mph54%30.30 "HgN/A
11:00 AM75 °FScattered clouds.23 mph50%30.33 "HgN/A
10:00 AM73 °FSunny.16 mph57%30.33 "Hg10 mi
9:00 AM70 °FSunny.16 mph60%30.33 "Hg10 mi
8:00 AM68 °FSunny.16 mph69%30.30 "Hg10 mi
7:00 AM61 °FSunny.12 mph94%30.30 "Hg10 mi
6:00 AM61 °FScattered clouds.12 mph94%30.30 "HgN/A
Weather by CustomWeather, © 2014

See weather overviewHow to use our weather pages